www.pogodaiklimat.ru

Погода и климат >> Архив погоды >> Беларусь >> Ганцевичи


ПОГОДА в Ганцевичах

  • Прогноз погоды в Ганцевичах
  • Монитор погоды в Ганцевичах
  • Климат города

АРХИВ ПОГОДЫ в Ганцевичах

Время (UTC), дата Ветер
(напр.,м/с)
 
Видим.   Явления Облачность Т
(С)
Тd
(С)
f
(%)
Тe
(С)
Тes
(С)
Комфортность P
(гПа)
Po
(гПа)
Тmin
(С)
Tmax
(С)
R
(мм)
R24
(мм)
S
(см)
18 17.05 штиль 0 10 км 10 баллов +12.8 +2.6 50 +13 +13 1026.0 1006.9 +17.5
06 18.05 штиль 0 10 км 10 баллов +12.6 +4.8 59 +12 +12 1023.0 1004.0 +3.3
09 18.05 штиль 0 10 км 10 баллов +17.0 +1.4 35 +17 +17 1023.0 1004.3
12 18.05 СВ 2 10 км 10 баллов +18.5 +2.7 35 +19 +19 1022.0 1003.4
15 18.05 СВ 2 10 км 10 баллов +18.3 +4.1 39 +19 +19 1021.0 1002.4
18 18.05 штиль 0 10 км 10 баллов +14.6 +6.2 57 +14 +14 1020.0 1001.2 +19.4
06 19.05 штиль 0 10 км 10 баллов +17.1 +5.4 46 +17 +17 1020.0 1001.3 +4.2
09 19.05 СВ 1 10 км 10 баллов +19.9 +0.8 28 +21 +21 комфорт 1019.0 1000.5
12 19.05 СВ 1 10 км 10 баллов +22.3 +2.4 27 +22 +22 комфорт 1018.0 999.7
15 19.05 СВ 2 10 км 10 баллов +22.4 +3.0 28 +22 +22 комфорт 1016.0 997.7
18 19.05 штиль 0 10 км 10 баллов +18.1 +5.3 43 +18 +18 1016.0 997.5 +23.1
06 20.05 штиль 0 10 км ясно +19.0 +9.5 54 +20 +28 1015.0 996.6 +5.3
09 20.05 СВ 3 10 км ясно +22.8 +5.2 32 +23 +36 комфорт 1014.0 995.8
12 20.05 С 2 10 км 10 баллов +23.1 +5.0 31 +23 +23 комфорт 1014.0 995.8
15 20.05 штиль 0 10 км 10 баллов +23.5 +4.9 30 +23 +23 комфорт 1013.0 994.9
18 20.05 ЮВ 1 10 км 10 баллов +19.4 +8.7 50 +21 +21 комфорт 1013.0 994.6 +24.0
06 21.05 СЗ 2 10 км 10 баллов +19.8 +13.0 65 +22 +22 комфорт 1012.0 993.7 +11.6
09 21.05 СЗ 4 10 км 10 баллов +21.4 +13.8 62 +24 +24 комфорт 1012.0 993.8
12 21.05 СЗ 4
{10}
10 км 10 баллов +24.1 +13.9 53 +26 +26 жарко 1012.0 994.0
15 21.05 СЗ 5
{11}
10 км 3 балла +23.1 +10.5 45 +25 +27 комфорт 1011.0 992.9
18 21.05 С 3
{14}
10 км ясно +18.8 +4.9 40 +19 +19 1013.0 994.6 +24.3
06 22.05 штиль 0 10 км 3 балла +16.4 +5.4 48 +16 +22 1018.0 999.3 +5.0
09 22.05 СЗ 1 10 км 3 балла +19.7 +5.0 38 +21 +34 комфорт 1017.0 998.6
12 22.05 С 2 10 км 3 балла +21.5 +5.4 35 +22 +32 комфорт 1016.0 997.7
15 22.05 СВ 2 10 км 10 баллов +21.2 +7.8 42 +22 +22 комфорт 1015.0 996.7
18 22.05 СЗ 1 10 км 10 баллов +19.3 +10.8 58 +21 +21 комфорт 1015.0 996.6 +22.5
06 23.05 штиль 0 10 км 3 балла +17.8 +8.9 56 +18 +24 1016.0 997.5 +9.3
09 23.05 СЗ 4 10 км 3 балла +21.8 +8.7 43 +23 +30 комфорт 1015.0 996.7
12 23.05 СЗ 4
{11}
10 км 3 балла +22.0 +5.4 34 +22 +29 комфорт 1014.0 995.8
15 23.05 СЗ 3 10 км 6 баллов +22.0 +6.6 37 +23 +24 комфорт 1013.0 994.8
18 23.05 штиль 0 10 км 6 баллов +19.1 +7.5 47 +20 +20 1013.0 994.6 +22.9
06 24.05 штиль 0 10 км 10 баллов +14.8 +7.8 63 +15 +15 1013.0 994.3 +10.6
09 24.05 СВ 1 10 км 10 баллов +20.1 +7.8 45 +22 +22 комфорт 1013.0 994.7
12 24.05 ЮВ 2 10 км 10 баллов +21.2 +6.3 38 +22 +22 комфорт 1011.0 992.8

 

Местоположение метеостанции Ганцевичи (Брестская область, Беларусь): широта 52.75 долгота 26.44 высота над уровнем моря 157 м.

В архиве по умолчанию представлена погода в Ганцевичах за последнюю неделю. Архивные данные за месяц целиком и за предыдущие месяцы, начиная с января 2011 года, Вы можете получить, выбрав интересующий диапазон дат из раскрывающегося списка и нажав кнопку "Ввод!".

Внимание! Время в таблицах - всемирное. Для получения местного времени необходимо прибавить поправку, которая в Ганцевичах равна 3 ч.

Смотрите также архив погоды в соседних городах и на ближайших метеорологических станциях:

Погода в Полесской (Брестская область, Беларусь) (53 км)
Погода в Ивацевичах (Брестская область, Беларусь) (73 км)
Погода в Пинске (Брестская область, Беларусь) (75 км)
Погода в Слуцке (Минская область, Беларусь) (81 км)
Погода в Столбцах (Минская область, Беларусь) (83 км)
Погода в Новогрудке (Гродненская область, Беларусь) (102 км)
Погода в Барановичах (Брестская область, Беларусь) (111 км)
Погода в Житковичах (Гомельская область, Беларусь) (113 км)
Погода в Пружанах (Брестская область, Беларусь) (133 км)
Погода в Марьиной Горке (Минская область, Беларусь) (137 км)

Пояснения к столбцам:

Ветер - указаны скорость ветра в м/с - средняя за 10 мин, порывы в срок и между сроками (в фигурных скобках) и направление, откуда дует ветер: С - северный, СВ - северо-восточный, В - восточный, ЮВ - юго-восточный, Ю - южный, ЮЗ - юго-западный, З - западный, СЗ - северо-западный.
Видимость - горизонтальная дальность видимости в метрах или километрах. При видимости от 1 до 10 км при отсутствии осадков обычно наблюдается дымка, при ухудшении видимости до 1 км и менее - туман. В сухую погоду видимость может ухудшаться дымом, пылью или мглою.
Явления - указаны атмосферные явления, наблюдавшиеся в срок или в последний час перед сроком; фигурными скобками обозначены явления, наблюдавшиеся между сроками (за 1-3 часа до срока); квадратными скобками обозначены град или гололедные отложения с указанием их диаметра в мм.
Облачность - указаны через наклонную черту общая и нижняя облачность в баллах и высота нижней границы облаков в метрах; квадратными скобками обозначены формы облаков: Ci - перистые, Cs - перисто-слоистые, Cc - перисто-кучевые, Ac - высококучевые, As - высокослоистые, Sc - слоисто-кучевые, Ns - слоисто-дождевые, Cu - кучевые, Cb - кучево-дождевые. Подробнее классификацию облаков см. в Атласе облаков (PDF).
T - Температура воздуха - температура, измеренная на высоте 2 м над землей.
Td - Температура точки росы - температура, при понижении до которой содержащийся в воздухе водяной пар достигнет насыщения.
f - Относительная влажность воздуха - влажноcть воздуха, измеренная на высоте 2 м над землей.
Te - Эффективная температура - температура, которую ощущает одетый по сезону человек в тени. Характеристика душности погоды. При расчете учитывается влияние влажности воздуха и скорости ветра на теплоощущения человека.
Tes - Эффективная температура на солнце - температура, которую ощущает человек, с поправкой на солнечный нагрев. Характеристика знойности погоды. Зависит от высоты солнца над горизонтом, облачности и скорости ветра. Ночью, в пасмурную погоду, а также при ветре 12 м/с и более поправка равна нулю.
P - Атмосферное давление - приведенное к уровню моря атмосферное давление.
Po - Атмосферное давление - измеренное на уровне метеостанции атмосферное давление.
Tmin - Минимальная температура - минимум температуры воздуха на высоте 2 м над землей.
Tmax - Максимальная температура - максимум температуры воздуха на высоте 2 м над землей.
R - Количество осадков - Количество выпавших осадков за период времени, мм. При наведении курсора мыши на число - период времени, за который выпало указанное количество осадков.
R24 - Количество осадков - Количество выпавших осадков за 24 часа, мм.
S - Снежный покров - Высота снежного покрова, см. При наведении курсора мыши на число - состояние снежного покрова и степень покрытия местности в баллах.